Aguajito, Mexico

8:46 AM MST on February 25, 2018 (GMT -0700)
Aguajito

Weather History for 76255 - February, 2018

Change the Weather History Date:

Wednesday, February 14, 2018

  Actual Average Record
Temperature  
Mean Temperature 74 °F -  
Max Temperature 84 °F 76 °F - ()
Min Temperature 64 °F 53 °F - ()
Cooling Degree Days 9    
Growing Degree Days 24 (Base 50)    
Moisture  
Dew Point 53 °F    
Average Humidity 44    
Maximum Humidity 68    
Minimum Humidity 16    
Precipitation  
Precipitation 0.00 in - - ()
Sea Level Pressure  
Sea Level Pressure 30.04 in    
Wind  
Wind Speed 5 mph ()    
Max Wind Speed 17 mph    
Max Gust Speed -    
Visibility 10.0 miles    
Events      
T = Trace of Precipitation, MM = Missing Value Source: Averaged Metar Reports

Daily Weather History Graph

Daily Weather History Graph

Search for Another Location

Airport or City:

Trip Planner

Search our weather history database for the weather conditions in past years. The results will help you decide how hot, cold, wet, or windy it might be!

Date:

Astronomy

Feb. 14, 2018 Rise Set
Actual Time 7:01 AM MST 6:13 PM MST
Civil Twilight 6:37 AM MST 6:37 PM MST
Nautical Twilight 6:09 AM MST 7:04 PM MST
Astronomical Twilight 5:42 AM MST 7:32 PM MST
Moon 6:16 AM MST (2/14) 5:23 PM MST (2/14)
Length of Visible Light 11h 59m
Length of Day
11h 11m
Waning Crescent, 1% of the Moon is Illuminated
Feb 14
Waning Crescent
Feb 15
New
Feb 23
First Quarter
Mar 1
Full
Mar 9
Last Quarter

Hourly Weather History & Observations

Time (MST) Temp. Heat Index Dew Point Humidity Pressure Visibility Wind Dir Wind Speed Gust Speed Precip Events Conditions
2:00 AM 66 °F - 42 °F 30% 30.12 in - North 2.2 mph - -  
5:00 AM 64 °F - 51 °F 52% 30.07 in - WNW 4.5 mph - -  
6:54 AM 66.2 °F - 55.4 °F 68% 30.03 in 10.0 mi Calm Calm - N/A   Overcast
7:41 AM 66.2 °F - 55.4 °F 68% 30.04 in 10.0 mi Calm Calm - N/A   Overcast
8:00 AM 65 °F - 50 °F 48% 30.09 in - WNW 6.7 mph - -  
8:40 AM 68.0 °F - 55.4 °F 64% 30.05 in 10.0 mi Calm Calm - N/A   Overcast
10:40 AM 73.4 °F - 53.6 °F 50% 30.07 in 10.0 mi Calm Calm - N/A   Overcast
11:00 AM 74 °F - 43 °F 22% 30.12 in - NW 6.7 mph - -  
11:41 AM 75.2 °F - 51.8 °F 44% 30.05 in 10.0 mi North 11.5 mph - N/A   Overcast
12:40 PM 77.0 °F - 51.8 °F 41% 30.04 in 10.0 mi North 16.1 mph - N/A   Overcast
1:40 PM 78.8 °F - 51.8 °F 39% 30.01 in 10.0 mi North 17.3 mph - N/A   Overcast
2:00 PM 84 °F - 45 °F 16% 30.06 in - WNW 6.7 mph - -  
2:40 PM 80.6 °F 80.5 °F 55.4 °F 42% 29.98 in 10.0 mi North 11.5 mph - N/A   Overcast
3:41 PM 82.4 °F 82.0 °F 57.2 °F 42% 29.96 in 10.0 mi North 11.5 mph - N/A   Overcast
4:40 PM 80.6 °F 81.1 °F 59.0 °F 48% 29.96 in 10.0 mi SW 11.5 mph - N/A   Overcast
5:00 PM 83 °F - 50 °F 21% 30.01 in - WNW 6.7 mph - -  
5:54 PM 77.0 °F - 60.8 °F 57% 29.96 in 10.0 mi SSW 11.5 mph - N/A   Overcast
6:40 PM 75.2 °F - 60.8 °F 61% 29.96 in 10.0 mi Calm Calm - N/A   Overcast
8:00 PM 75 °F - 52 °F 33% 30.05 in - WNW 6.7 mph - -  
11:00 PM 72 °F - 52 °F 39% 30.07 in - WNW 6.7 mph - -